D2913 Weather Reports


Display with metric or nautical units.
time (UTC)temp
F
wind
direction
speed
MPH
gust
MPH
rain 1hr
in
rain 24hr
in
rain mn
in
humidity
%
barometer
mb
20260502181517 71 0 0.0 0.0 0.00 0.00 0.00 73 1018.3
20260502181016 71 0 0.0 0.0 0.00 0.00 0.00 73 1018.3
20260502180517 71 0 0.0 0.0 0.00 0.00 0.00 73 1018.4
20260502170517 76 0 0.0 0.0 0.00 0.00 0.00 70 1019.2
20260502164017 78 0 0.0 0.0 0.00 0.00 0.00 67 1019.5
20260502163517 78 0 0.0 0.0 0.00 0.00 0.00 68 1019.6
20260502163017 78 0 0.0 0.0 0.00 0.00 0.00 68 1019.7
20260502162517 78 0 0.0 0.0 0.00 0.00 0.00 68 1019.7
20260502162017 77 0 0.0 0.0 0.00 0.00 0.00 68 1019.7
20260502161517 76 0 0.0 0.0 0.00 0.00 0.00 68 1019.6
20260502161016 77 0 0.0 0.0 0.00 0.00 0.00 68 1019.7
20260502160517 77 0 0.0 0.0 0.00 0.00 0.00 68 1019.8
20260502152016 76 0 0.0 0.0 0.00 0.00 0.00 68 1020.2
20260502151516 77 0 0.0 0.0 0.00 0.00 0.00 67 1020.4
20260502151017 77 0 0.0 0.0 0.00 0.00 0.00 68 1020.3
20260502150516 78 0 0.0 0.0 0.00 0.00 0.00 68 1020.4
20260502130517 74 0 0.0 0.0 0.00 0.00 0.00 70 1021.8
20260502123516 74 0 0.0 0.0 0.00 0.00 0.00 71 1022.1
20260502122517 73 0 0.0 0.0 0.00 0.00 0.00 72 1022.2
20260502122016 73 0 0.0 0.0 0.00 0.00 0.00 72 1022.1
20260502121516 73 0 0.0 0.0 0.00 0.00 0.00 71 1022.2
20260502121016 74 0 0.0 0.0 0.00 0.00 0.00 71 1022.4
20260502120517 73 0 0.0 0.0 0.00 0.00 0.00 72 1022.2
20260502115517 73 0 0.0 0.0 0.00 0.00 0.00 72 1022.5
20260502115016 74 0 0.0 0.0 0.00 0.00 0.00 71 1022.8
20260502114523 74 0 0.0 0.0 0.00 0.00 0.00 72 1022.8
20260502114016 74 0 0.0 0.0 0.00 0.00 0.00 71 1022.8
20260502113516 74 0 0.0 0.0 0.00 0.00 0.00 71 1022.7
20260502113016 73 0 0.0 0.0 0.00 0.00 0.00 72 1022.8
20260502112016 73 0 0.0 0.0 0.00 0.00 0.00 71 1023.0
20260502111542 73 0 0.0 0.0 0.00 0.00 0.00 72 1023.0
20260502111016 71 0 0.0 0.0 0.00 0.00 0.00 73 1022.9
20260502110516 71 0 0.0 0.0 0.00 0.00 0.00 71 1022.8
20260502110016 72 0 0.0 0.0 0.00 0.00 0.00 72 1023.0
20260502105516 72 0 0.0 0.0 0.00 0.00 0.00 72 1023.0
20260502105016 71 0 0.0 0.0 0.00 0.00 0.00 72 1023.1
20260502104516 71 0 0.0 0.0 0.00 0.00 0.00 72 1023.1
20260502104016 71 0 0.0 0.0 0.00 0.00 0.00 72 1023.2
20260502103016 71 0 0.0 0.0 0.00 0.00 0.00 72 1023.4
20260502102517 70 0 0.0 0.0 0.00 0.00 0.00 72 1023.3
20260502102017 71 0 0.0 0.0 0.00 0.00 0.00 72 1023.4
20260502101016 72 0 0.0 0.0 0.00 0.00 0.00 73 1023.6
20260502100517 71 0 0.0 0.0 0.00 0.00 0.00 73 1023.5
20260502091516 68 0 0.0 0.0 0.00 0.00 0.00 74 1023.6
20260502091017 69 0 0.0 0.0 0.00 0.00 0.00 74 1023.8
20260502090539 69 0 0.0 0.0 0.00 0.00 0.00 75 1023.8
20260502071517 60 0 0.0 0.0 0.00 0.00 0.00 80 1023.1
20260502071016 60 0 0.0 0.0 0.00 0.00 0.00 82 1023.1
20260502070516 59 0 0.0 0.0 0.00 0.00 0.00 82 1023.0
20260502070017 59 0 0.0 0.0 0.00 0.00 0.00 84 1023.1
20260502065517 58 0 0.0 0.0 0.00 0.00 0.00 85 1023.0
20260502065016 57 0 0.0 0.0 0.00 0.00 0.00 86 1022.9
20260502064517 56 0 0.0 0.0 0.00 0.00 0.00 86 1022.8
20260502064036 56 0 0.0 0.0 0.00 0.00 0.00 86 1022.6
20260502063516 55 0 0.0 0.0 0.00 0.00 0.00 87 1022.6
20260502063016 54 0 0.0 0.0 0.00 0.00 0.00 88 1022.4
20260502062516 53 0 0.0 0.0 0.00 0.00 0.00 88 1022.2
20260502061516 51 0 0.0 0.0 0.00 0.00 0.00 90 1021.9
20260502061016 50 0 0.0 0.0 0.00 0.00 0.00 91 1021.8
20260502060516 49 0 0.0 0.0 0.00 0.00 0.00 91 1021.6
20260502060017 48 0 0.0 0.0 0.00 0.00 0.00 91 1021.4
20260502055516 47 0 0.0 0.0 0.00 0.00 0.00 91 1021.2
20260502055017 46 0 0.0 0.0 0.00 0.00 0.00 91 1021.2
20260502054516 45 0 0.0 0.0 0.00 0.00 0.00 91 1021.1
20260502054016 44 0 0.0 0.0 0.00 0.00 0.00 91 1020.9
20260502053517 43 0 0.0 0.0 0.00 0.00 0.00 91 1020.9
20260502053017 42 0 0.0 0.0 0.00 0.00 0.00 91 1020.5
20260502052517 42 0 0.0 0.0 0.00 0.00 0.00 91 1020.4
20260502052016 41 0 0.0 0.0 0.00 0.00 0.00 91 1020.4
20260502051516 40 0 0.0 0.0 0.00 0.00 0.00 91 1020.3
20260502051017 40 0 0.0 0.0 0.00 0.00 0.00 91 1020.1
20260502050516 39 0 0.0 0.0 0.00 0.00 0.00 91 1020.2
20260502045517 38 0 0.0 0.0 0.00 0.00 0.00 91 1020.0
20260502045016 38 0 0.0 0.0 0.00 0.00 0.00 91 1019.7
20260502044517 38 0 0.0 0.0 0.00 0.00 0.00 91 1019.8
20260502044016 38 0 0.0 0.0 0.00 0.00 0.00 91 1019.8
20260502043016 37 0 0.0 0.0 0.00 0.00 0.00 91 1019.7
20260502042516 37 0 0.0 0.0 0.00 0.00 0.00 91 1019.9
20260502042016 38 0 0.0 0.0 0.00 0.00 0.00 91 1019.9
20260502041534 38 0 0.0 0.0 0.00 0.00 0.00 91 1019.9
20260502041017 38 0 0.0 0.0 0.00 0.00 0.00 91 1019.8
20260502040516 37 0 0.0 0.0 0.00 0.00 0.00 91 1019.8
20260502040016 37 0 0.0 0.0 0.00 0.00 0.00 91 1019.9
20260502035517 37 0 0.0 0.0 0.00 0.00 0.00 91 1019.8
20260502035016 38 0 0.0 0.0 0.00 0.00 0.00 91 1019.8
20260502034516 38 0 0.0 0.0 0.00 0.00 0.00 91 1019.9
20260502034016 39 0 0.0 0.0 0.00 0.00 0.00 91 1020.0
20260502033016 39 0 0.0 0.0 0.00 0.00 0.00 91 1020.1
20260502032517 38 0 0.0 0.0 0.00 0.00 0.00 91 1020.1
20260502032016 38 0 0.0 0.0 0.00 0.00 0.00 91 1020.0
20260502031517 37 0 0.0 0.0 0.00 0.00 0.00 91 1020.0
20260502031016 37 0 0.0 0.0 0.00 0.00 0.00 91 1020.0
20260502030516 38 0 0.0 0.0 0.00 0.00 0.00 91 1020.2
20260502025517 38 0 0.0 0.0 0.00 0.00 0.00 91 1020.1
20260502025016 38 0 0.0 0.0 0.00 0.00 0.00 91 1020.2
20260502024516 38 0 0.0 0.0 0.00 0.00 0.00 91 1020.2
20260502024016 38 0 0.0 0.0 0.00 0.00 0.00 91 1020.2
20260502023516 39 0 0.0 0.0 0.00 0.00 0.00 91 1020.3
20260502023017 39 0 0.0 0.0 0.00 0.00 0.00 91 1020.3
20260502022516 39 0 0.0 0.0 0.00 0.00 0.00 91 1020.3
20260502022017 39 0 0.0 0.0 0.00 0.00 0.00 91 1020.4
20260502021517 39 0 0.0 0.0 0.00 0.00 0.00 91 1020.5
20260502021016 39 0 0.0 0.0 0.00 0.00 0.00 91 1020.4
20260502020516 39 0 0.0 0.0 0.00 0.00 0.00 91 1020.3
20260502020016 39 0 0.0 0.0 0.00 0.00 0.00 91 1020.3
20260502015516 40 0 0.0 0.0 0.00 0.00 0.00 91 1020.5
20260502015016 40 0 0.0 0.0 0.00 0.00 0.00 91 1020.7
20260502014516 41 0 0.0 0.0 0.00 0.00 0.00 91 1020.7
20260502014017 41 0 0.0 0.0 0.00 0.00 0.00 91 1020.8
20260502013516 41 0 0.0 0.0 0.00 0.00 0.00 91 1020.8
20260502013017 41 0 0.0 0.0 0.00 0.00 0.00 91 1020.9
20260502012016 41 0 0.0 0.0 0.00 0.00 0.00 91 1020.9
20260502011016 41 0 0.0 0.0 0.00 0.00 0.00 91 1021.0
20260502010016 41 0 0.0 0.0 0.00 0.00 0.00 90 1021.0
20260502005516 41 0 0.0 0.0 0.00 0.00 0.00 90 1021.0
20260502005017 41 0 0.0 0.0 0.00 0.00 0.00 90 1021.0
20260502004516 41 0 0.0 0.0 0.00 0.00 0.00 90 1021.1
20260502003516 42 0 0.0 0.0 0.00 0.00 0.00 89 1021.2
20260502003017 42 0 0.0 0.0 0.00 0.00 0.00 89 1021.2
20260502002516 42 0 0.0 0.0 0.00 0.00 0.00 88 1021.4
20260502002016 43 0 0.0 0.0 0.00 0.00 0.00 88 1021.6
20260502001516 43 0 0.0 0.0 0.00 0.00 0.00 89 1021.6
20260502001016 43 0 0.0 0.0 0.00 0.00 0.00 89 1021.6
20260502000516 44 0 0.0 0.0 0.00 0.00 0.00 88 1021.6
20260501235516 45 0 0.0 0.0 0.00 0.00 0.00 87 1021.8
20260501235017 45 0 0.0 0.0 0.00 0.00 0.00 87 1022.0
20260501234516 45 0 0.0 0.0 0.00 0.00 0.00 87 1022.0
20260501234016 46 0 0.0 0.0 0.00 0.00 0.00 86 1022.1
20260501233016 47 0 0.0 0.0 0.00 0.00 0.00 84 1022.5
20260501232538 49 0 0.0 0.0 0.00 0.00 0.00 83 1022.7
20260501231516 49 0 0.0 0.0 0.00 0.00 0.00 84 1022.7
20260501231017 49 0 0.0 0.0 0.00 0.00 0.00 83 1022.7
20260501230516 49 0 0.0 0.0 0.00 0.00 0.00 84 1022.7
20260501225517 49 0 0.0 0.0 0.00 0.00 0.00 84 1022.8
20260501224016 48 0 0.0 0.0 0.00 0.00 0.00 85 1022.7
20260501223516 48 0 0.0 0.0 0.00 0.00 0.00 85 1022.7
20260501223016 48 0 0.0 0.0 0.00 0.00 0.00 85 1022.8
20260501222516 48 0 0.0 0.0 0.00 0.00 0.00 85 1022.8
20260501222016 48 0 0.0 0.0 0.00 0.00 0.00 84 1022.9
20260501221516 49 0 0.0 0.0 0.00 0.00 0.00 83 1023.0
20260501221016 49 0 0.0 0.0 0.00 0.00 0.00 83 1023.1
20260501220516 50 0 0.0 0.0 0.00 0.00 0.00 83 1023.1
20260501215017 52 0 0.0 0.0 0.00 0.00 0.00 81 1023.5
20260501214517 52 0 0.0 0.0 0.00 0.00 0.00 81 1023.6
20260501214017 52 0 0.0 0.0 0.00 0.00 0.00 81 1023.5
20260501213016 53 0 0.0 0.0 0.00 0.00 0.00 80 1023.6
20260501212516 53 0 0.0 0.0 0.00 0.00 0.00 80 1023.7
20260501212016 53 0 0.0 0.0 0.00 0.00 0.00 80 1023.8
20260501211516 53 0 0.0 0.0 0.00 0.00 0.00 80 1023.7
20260501211016 53 0 0.0 0.0 0.00 0.00 0.00 80 1023.8
20260501210538 53 0 0.0 0.0 0.00 0.00 0.00 80 1023.7
20260501205516 54 0 0.0 0.0 0.00 0.00 0.00 80 1023.9
20260501205016 54 0 0.0 0.0 0.00 0.00 0.00 80 1023.9
20260501204517 54 0 0.0 0.0 0.00 0.00 0.00 79 1023.9
20260501204016 54 0 0.0 0.0 0.00 0.00 0.00 79 1024.1
20260501203516 54 0 0.0 0.0 0.00 0.00 0.00 79 1024.1
20260501203017 55 0 0.0 0.0 0.00 0.00 0.00 79 1024.2
20260501202517 55 0 0.0 0.0 0.00 0.00 0.00 79 1024.2
20260501202017 55 0 0.0 0.0 0.00 0.00 0.00 79 1024.2
20260501201516 55 0 0.0 0.0 0.00 0.00 0.00 79 1024.3
20260501200516 55 0 0.0 0.0 0.00 0.00 0.00 79 1024.3
20260501200016 56 0 0.0 0.0 0.00 0.00 0.00 78 1024.4
20260501195516 56 0 0.0 0.0 0.00 0.00 0.00 78 1024.4
20260501195017 56 0 0.0 0.0 0.00 0.00 0.00 78 1024.4
20260501194516 56 0 0.0 0.0 0.00 0.00 0.00 78 1024.5
20260501194016 57 0 0.0 0.0 0.00 0.00 0.00 77 1024.5
20260501193517 57 0 0.0 0.0 0.00 0.00 0.00 77 1024.5
20260501193016 57 0 0.0 0.0 0.00 0.00 0.00 77 1024.5
20260501192516 58 0 0.0 0.0 0.00 0.00 0.00 77 1024.5
20260501192016 58 0 0.0 0.0 0.00 0.00 0.00 77 1024.6
20260501191517 58 0 0.0 0.0 0.00 0.00 0.00 76 1024.6
20260501191016 59 0 0.0 0.0 0.00 0.00 0.00 76 1024.6
20260501190516 59 0 0.0 0.0 0.00 0.00 0.00 76 1024.7
20260501190017 59 0 0.0 0.0 0.00 0.00 0.00 76 1024.8
20260501184516 60 0 0.0 0.0 0.00 0.00 0.00 75 1024.7
20260501183517 60 0 0.0 0.0 0.00 0.00 0.00 75 1024.7
20260501183017 61 0 0.0 0.0 0.00 0.00 0.00 75 1024.8
20260501182516 61 0 0.0 0.0 0.00 0.00 0.00 74 1024.9